Location: Barbinghem
(50.7580°N, 2.1318°E)
Time: 09:42:05
(UTC+00:00)

Daily predictions for brighter satellites

Satellite Brightness Start Highest point End
(mag) Time Altitude Azimuth Time Altitude Azimuth Time Altitude Azimuth
SL-16 R/B 4.4 16:23:02 10° NNW 16:24:09 10° NNW 16:25:16 10° N
NOAA 11 4.2 16:19:31 10° SSE 16:24:57 85° ENE 16:30:26 10° NNW
USA 305 3.1 16:23:33 10° WNW 16:27:46 58° N 16:31:58 10° E
CZ-2C R/B 4.3 16:27:07 10° ENE 16:29:21 13° E 16:31:35 10° ESE
Cosmos 1842 Rocket 3.9 16:24:55 10° SSW 16:29:23 75° W 16:33:54 10° N
Cosmos 2219 Rocket 4.0 16:27:33 10° N 16:30:02 13° NNE 16:32:31 10° NE
SL-24 R/B - RUBIN 2 3.7 16:25:38 10° NW 16:30:14 79° SW 16:34:33 10° SE
Meteor 1-25 Rocket 4.2 16:24:43 10° N 16:30:20 79° ENE 16:35:58 10° SSE
Nadezhda 4 Rocket 4.3 16:25:14 10° NNW 16:31:35 79° W 16:37:55 10° S
H-2A R/B 4.5 16:30:11 10° SSW 16:33:33 35° W 16:36:57 10° NNW
Cosmos 1500 3.5 16:30:14 10° N 16:33:49 42° ENE 16:37:22 10° SSE
CZ-4B R/B 2.7 16:30:00 10° SSE 16:33:51 63° ENE 16:37:33 10° N
Cosmos 1606 3.9 16:30:15 10° SSW 16:33:51 42° WNW 16:37:31 10° N
Cosmos 1464 Rocket 4.4 16:27:50 10° SSW 16:34:12 73° WNW 16:40:35 10° N
Cosmos 44 Rocket 3.5 16:30:01 10° NW 16:34:53 51° NE 16:39:34 10° ESE
COSMOS 2406 3.3 16:35:42 10° SSW 16:41:24 72° ESE 16:47:07 10° NNE
Cosmos 468 Rocket 4.1 16:37:28 10° SSW 16:42:39 81° WNW 16:47:55 10° NNE
Cosmos 1428 Rocket 4.4 16:40:43 10° N 16:46:52 75° ENE 16:53:03 10° SSE
Cosmos 1092 Rocket 4.1 16:45:36 10° N 16:52:00 90° ENE 16:58:20 10° S
Cosmos 2298 Rocket 4.5 16:48:42 10° NNW 16:53:43 39° NE 16:58:42 10° SE
CZ-4B R/B 3.8 16:50:04 10° ESE 16:54:48 33° ENE 16:59:30 10° N
Meteor 2-21 4.4 16:49:29 10° N 16:55:36 77° ENE 17:01:38 10° SSE
USA 267 3.7 16:50:26 12° ENE 16:56:22 47° SE 17:02:37 10° SSW
CZ-2D R/B 3.8 16:53:23 10° SE 16:56:53 35° ENE 17:00:24 10° N
ATLAS CENTAUR R/B 2.9 16:48:16 10° SW 16:58:07 79° SSE 17:01:31 16° ENE
Cosmos 1939 Rocket 2.8 16:55:25 10° SSE 16:59:31 79° ENE 17:03:34 10° N
USA 306 2.9 16:55:54 10° WNW 17:00:09 67° NNE 17:03:51 13° E
Cosmos 1633 Rocket 3.3 16:56:30 10° N 17:00:45 46° ENE 17:04:59 10° SSE
COSMO-SKYMED 1 4.0 16:59:10 15° ENE 17:00:57 18° E 17:04:00 10° SE
Cosmos 1151 Rocket 3.5 16:58:07 10° SSE 17:02:10 39° E 17:06:15 10° NNE
Cosmos 1666 2.8 16:58:55 10° N 17:02:34 49° ENE 17:06:10 10° SSE
Cosmos 1782 2.7 17:00:13 10° S 17:04:12 73° E 17:08:10 10° NNE
Cosmos 2360 Rocket 3.1 16:59:37 10° NNW 17:04:23 27° NE 17:08:17 14° E
Radarsat 4.5 16:59:42 10° SSE 17:04:52 73° ENE 17:10:05 10° NNW
ISS -1.1 17:02:45 10° W 17:05:24 21° SW 17:08:04 10° SSE
SeaSat 1 3.8 17:03:40 10° NNE 17:08:06 34° NW 17:12:31 10° WSW
SL-08 R/B 3.7 17:04:01 10° N 17:08:40 64° WNW 17:13:15 10° SSW
Cosmos 1763 Rocket 4.3 17:04:07 10° SW 17:09:04 50° WNW 17:14:05 10° NNE
PAYLOAD B 4.3 17:04:08 10° SE 17:09:37 58° ENE 17:15:07 10° N
Cosmos 1818 3.5 17:04:56 10° NW 17:10:28 84° NE 17:15:56 10° SE
YAOGAN 1 4.1 17:11:21 17° NE 17:11:21 17° NE 17:13:26 10° NNE
ATLAS 5 CENTAUR R/B 2.5 17:08:34 10° NW 17:17:25 58° NNE 17:19:39 20° ESE
Cosmos 1536 4.4 17:14:44 10° NNE 17:16:30 18° NE 17:16:30 18° NE
Cosmos 2279 Rocket 4.0 17:12:12 10° S 17:18:15 59° E 17:24:20 10° NNE
Cosmos 2142 Rocket 4.5 17:13:07 10° S 17:19:12 63° E 17:25:22 10° NNE
Cosmos 841 Rocket 3.5 17:14:04 10° SSW 17:19:13 83° WNW 17:24:25 10° NNE
Cosmos 2266 Rocket 4.3 17:13:36 10° N 17:19:43 44° ENE 17:25:48 10° SE
ERBS 3.5 17:17:06 10° NW 17:19:52 26° N 17:20:46 23° NNE
USA 307 2.8 17:16:28 10° WNW 17:20:45 74° NNE 17:23:33 21° E
CZ-4C R/B 3.4 17:14:15 10° NW 17:21:21 69° SW 17:29:39 10° SSE
Lacrosse 5 rocket 1.7 17:19:57 10° WNW 17:23:48 62° SW 17:27:52 10° SE
NOSS 3-4 (A) 4.4 17:19:01 10° NW 17:24:58 35° NNE 17:28:52 21° ENE
NOSS 3-4 (C) 4.4 17:19:08 10° NW 17:25:04 35° NNE 17:28:56 21° ENE
SL-08 RB Rocket 4.4 17:22:11 10° SE 17:26:13 31° ENE 17:30:14 10° N
ATLAS 2AS CENTAUR R/B 3.9 17:20:45 10° NW 17:27:21 31° N 17:31:18 19° NE
Cosmos 2322 Rocket 2.4 17:21:57 10° NNW 17:27:30 49° NE 17:33:02 10° SE
Cosmos 1933 Rocket 4.1 17:23:50 10° N 17:27:49 34° ENE 17:31:45 10° SE
COSMOS 2428 4.1 17:24:00 10° NNW 17:27:58 19° NNE 17:28:43 18° NE
Cosmos 2208 Rocket 4.2 17:23:24 10° S 17:28:41 57° ESE 17:32:51 17° NE
Cosmos 2150 Rocket 3.9 17:24:17 10° NNW 17:29:27 65° ENE 17:34:39 10° SE
Cosmos 1666 Rocket 3.7 17:25:53 10° NNW 17:30:21 79° W 17:34:45 10° S
Cosmos 1980 Rocket 3.4 17:25:16 10° NW 17:30:37 45° WSW 17:35:56 10° S
USA 234 3.4 17:25:07 10° SE 17:31:41 80° SSW 17:38:15 10° WNW
Cosmos 1328 Rocket 3.6 17:27:50 10° S 17:32:11 57° E 17:36:01 13° NNE
Cosmos 1470 Rocket 3.6 17:29:31 10° N 17:33:58 59° ENE 17:38:23 10° SSE
Cosmos 1544 3.3 17:30:37 10° N 17:34:05 43° ENE 17:37:33 10° SSE
Cosmos 1125 Rocket 3.4 17:30:26 10° NNW 17:35:41 67° ENE 17:40:56 10° SSE
X-37B 2.9 17:36:25 10° S 17:37:41 12° SSE 17:37:49 12° SSE
Cosmos 1812 2.8 17:34:09 10° SSW 17:37:59 80° W 17:41:45 11° N
PSLV R/B 3.9 17:35:14 10° S 17:38:56 72° WSW 17:42:44 10° NNW
H-2A R/B 1.9 17:34:37 10° SSE 17:39:44 88° ENE 17:44:45 10° NNW
Cosmos 1634 Rocket 4.4 17:34:26 10° SSW 17:40:44 68° WNW 17:47:05 10° N
Meteor 1-11 Rocket 3.8 17:35:28 10° N 17:41:01 55° ENE 17:46:39 10° SSE
Okean O Rocket 1.7 17:37:10 10° SSE 17:41:31 54° ENE 17:45:53 10° N
Meteor 2-8 Rocket 4.4 17:36:05 10° S 17:42:11 67° E 17:48:18 10° NNE
Meteor 1-10 Rocket 4.4 17:36:46 10° S 17:42:18 51° E 17:47:12 13° NNE
ATLAS CENTAUR R/B 3.7 17:40:19 10° NW 17:42:56 15° N 17:44:13 13° NNE
USA 308 2.8 17:39:11 10° WNW 17:43:27 87° NNE 17:45:21 32° ESE
GEOS 3 Rocket 4.2 17:41:55 29° ENE 17:43:45 38° NNE 17:48:30 10° NW
SL-16 R/B 2.1 17:42:29 10° NNW 17:48:12 82° ENE 17:53:53 10° SSE
Cosmos 2237 Rocket 4.1 17:46:27 10° N 17:49:04 14° NNE 17:49:04 14° NNE
SKYMED 2 3.7 17:47:47 33° NE 17:49:23 50° E 17:53:36 10° S
ARGOS 3.0 17:46:15 10° SSE 17:51:38 71° ENE 17:57:01 10° N
Cosmos 2082 Rocket 2.6 17:46:51 10° SW 17:52:28 61° NW 17:56:57 16° NNE
CZ-4 R/B 3.7 17:58:56 12° N 17:58:56 12° N 17:59:15 10° N
deb Chang Zheng 4 3.4 17:52:45 10° SSE 17:57:04 86° ENE 18:01:25 10° NNW
COSMOS 2455 3.4 17:54:56 10° WSW 18:00:49 54° NW 18:04:54 20° NNE
Cosmos 1833 Rocket 4.3 18:01:16 10° WSW 18:06:10 30° NW 18:10:35 12° NNE
Feng Yun 1-1 Rocket 4.3 18:00:43 10° SSE 18:06:33 65° ENE 18:12:18 10° N
USA 305 3.1 18:03:31 10° WNW 18:07:44 68° SSW 18:08:52 45° SE
Cosmos 2333 Rocket 2.7 18:02:38 10° NNW 18:08:02 38° NE 18:08:05 38° NE
Cosmos 1356 Rocket 3.3 18:04:27 10° NNW 18:08:41 90° ESE 18:12:56 10° S
CZ-2C R/B 2.4 18:06:50 20° NNE 18:10:33 80° ESE 18:15:43 10° SSW
SL-16 R/B 4.4 18:09:45 10° N 18:11:02 11° NNE 18:11:02 11° NNE
Cosmos 2219 Rocket 3.0 18:10:38 10° NNW 18:15:04 33° NNE 18:15:04 33° NNE
Cosmos 1655 Rocket 4.1 18:10:05 10° NNW 18:16:31 78° W 18:22:51 10° S
Aureole 3 Rocket 3.6 18:13:54 10° S 18:18:35 63° E 18:25:16 10° NNE
Cosmos 1515 Rocket 3.5 18:14:52 10° S 18:19:18 88° W 18:20:26 50° N
Cosmos 921 Rocket 3.2 18:17:37 10° SSW 18:21:50 68° WNW 18:22:47 50° N
Spot 2 4.3 18:23:28 28° SSE 18:26:14 75° ENE 18:31:18 10° NNW
Cosmos 371 Rocket 3.7 18:30:09 10° NNW 18:33:50 50° N 18:33:50 50° N
CZ-4B R/B 4.2 18:30:05 10° S 18:35:14 45° W 18:40:21 10° NNW
Cosmos 2333 4.3 18:30:16 10° NNW 18:35:33 57° NNE 18:35:33 57° NNE
COSMO-SKYMED 1 3.1 18:36:23 43° NNW 18:37:29 57° WNW 18:41:44 10° SSW
USA 267 3.2 18:37:47 49° NE 18:39:41 77° NNW 18:46:13 10° WSW
USA 306 3.7 18:35:52 10° WNW 18:39:52 46° SW 18:39:52 46° SW
Meteor 1-27 Rocket 3.6 18:39:47 10° SSW 18:45:18 84° WNW 18:46:30 57° N
YAOGAN 1 4.1 18:48:30 27° NNW 18:48:30 27° NNW 18:50:34 10° NNW
Cosmos 836 Rocket 4.5 18:42:53 10° SSW 18:48:11 81° WNW 18:48:20 80° NW
Cosmos 2360 Rocket 2.2 18:43:19 10° NNW 18:49:00 77° WSW 18:50:08 58° S
USA 307 4.4 18:56:32 10° WNW 18:59:35 33° WSW 18:59:35 33° WSW
Lacrosse 5 rocket 4.3 19:00:33 10° W 19:02:16 12° SW 19:04:02 10° SSW
Cosmos 2322 Rocket 3.6 19:06:18 10° NW 19:11:25 35° WSW 19:16:32 10° S
COSMOS 2428 4.0 19:07:42 10° NNW 19:10:45 31° NNW 19:10:45 31° NNW
NOSS 3-4 (A) 3.7 19:09:57 10° NW 19:16:20 77° N 19:16:20 77° N
NOSS 3-4 (C) 3.7 19:10:04 10° NW 19:16:24 76° N 19:16:24 76° N
Okean O Rocket 4.1 19:14:52 10° SW 19:18:11 20° W 19:21:32 10° NW
ATLAS 2AS CENTAUR R/B 3.4 19:12:48 10° NW 19:18:44 45° N 19:18:44 45° N
Cosmos 1867 4.4 19:15:20 10° SW 19:19:10 46° WSW 19:19:10 46° WSW
GEOS 3 Rocket 4.5 19:23:02 46° WNW 19:23:02 46° WNW 19:26:47 10° NW
ATLAS CENTAUR R/B 4.3 19:19:53 10° NNW 19:20:20 12° NNW 19:20:20 12° NNW
ATLAS CENTAUR R/B 4.4 19:24:39 10° WNW 19:27:07 20° WNW 19:27:07 20° WNW
Cosmos 2237 Rocket 4.4 19:29:41 10° NNW 19:30:53 16° NNW 19:30:53 16° NNW
Cosmos 2082 Rocket 4.3 19:33:57 10° WNW 19:37:46 18° NNW 19:38:48 17° NNW
Cosmos 2333 Rocket 3.8 19:46:56 10° NW 19:50:07 31° NW 19:50:07 31° NW
Cosmos 2219 Rocket 4.1 19:54:31 10° NW 19:56:49 24° NW 19:56:49 24° NW
